Weather History for KSEZ - January, 2013

Change the Weather History Date:

Thursday, January 10, 2013

  Actual Average Record
Temperature  
Mean Temperature 43 °F -  
Max Temperature 51 °F 56 °F 59 °F (2012)
Min Temperature 33 °F 29 °F 32 °F (2011)
Degree Days  
Heating Degree Days 22    
Moisture  
Dew Point 21 °F    
Average Humidity 39    
Maximum Humidity 75    
Minimum Humidity 28    
Precipitation  
Precipitation 0.00 in - - ()
Sea Level Pressure  
Sea Level Pressure 29.87 in    
Wind  
Wind Speed 8 mph (South)    
Max Wind Speed 25 mph    
Max Gust Speed 34 mph    
Visibility 10 miles    
Events      
Averages and records for this station are not official NWS values.
T = Trace of Precipitation, MM = Missing Value Source: NWS Daily Summary

Daily Weather History Graph

Daily Weather History Graph

Search for Another Location

Airport or City:

Trip Planner

Search our weather history database for the weather conditions in past years. The results will help you decide how hot, cold, wet, or windy it might be!

Date:

Astronomy

Jan. 10, 2013 Rise Set
Actual Time 7:35 AM MST 5:34 PM MST
Civil Twilight 7:07 AM MST 6:02 PM MST
Nautical Twilight 6:36 AM MST 6:33 PM MST
Astronomical Twilight 6:05 AM MST 7:04 PM MST
Moon 6:18 AM MST (1/10) 4:46 PM MST (1/10)
Length of Visible Light 10h 54m
Length of Day
9h 59m
Waning Crescent, 2% of the Moon is Illuminated
Jan 10
Waning Crescent
Jan 11
New
Jan 18
First Quarter
Jan 26
Full
Feb 3
Last Quarter

Hourly Weather History & Observations

Time (MST) Temp. Windchill Dew Point Humidity Pressure Visibility Wind Dir Wind Speed Gust Speed Precip Events Conditions
1:15 AM 44.6 °F 42.2 °F 19.4 °F 37% 30.04 in 10.0 mi ENE 4.6 mph - N/A   Clear
1:35 AM 44.6 °F 41.4 °F 19.4 °F 37% 30.03 in 10.0 mi NE 5.8 mph - N/A   Clear
1:55 AM 46.4 °F 44.3 °F 19.4 °F 34% 30.03 in 10.0 mi NE 4.6 mph - N/A   Clear
2:15 AM 48.2 °F - 17.6 °F 30% 30.02 in 10.0 mi NNE 5.8 mph - N/A   Clear
2:55 AM 46.4 °F 45.2 °F 17.6 °F 32% 30.02 in 10.0 mi SE 3.5 mph - N/A   Clear
3:15 AM 44.6 °F - 17.6 °F 34% 30.02 in 10.0 mi Calm Calm - N/A   Clear
3:35 AM 46.4 °F 45.2 °F 17.6 °F 32% 30.01 in 10.0 mi East 3.5 mph - N/A   Clear
3:55 AM 44.6 °F - 17.6 °F 34% 30.00 in 10.0 mi Calm Calm - N/A   Clear
4:15 AM 44.6 °F - 17.6 °F 34% 30.00 in 10.0 mi Calm Calm - N/A   Clear
4:35 AM 44.6 °F 43.1 °F 17.6 °F 34% 29.98 in 10.0 mi ESE 3.5 mph - N/A   Clear
4:55 AM 46.4 °F - 17.6 °F 32% 29.97 in 10.0 mi Calm Calm - N/A   Clear
5:15 AM 44.6 °F - 17.6 °F 34% 29.97 in 10.0 mi Calm Calm - N/A   Clear
5:55 AM 46.4 °F - 17.6 °F 32% 29.95 in 10.0 mi Calm Calm - N/A   Clear
6:15 AM 46.4 °F - 17.6 °F 32% 29.95 in 10.0 mi Calm Calm - N/A   Clear
6:35 AM 44.6 °F 41.4 °F 17.6 °F 34% 29.95 in 10.0 mi South 5.8 mph - N/A   Clear
6:55 AM 44.6 °F 42.2 °F 17.6 °F 34% 29.95 in 10.0 mi South 4.6 mph - N/A   Clear
7:15 AM 44.6 °F 43.1 °F 17.6 °F 34% 29.94 in 10.0 mi West 3.5 mph - N/A   Clear
7:35 AM 42.8 °F 41.1 °F 17.6 °F 36% 29.94 in 10.0 mi West 3.5 mph - N/A   Clear
8:15 AM 44.6 °F 42.2 °F 17.6 °F 34% 29.95 in 10.0 mi SW 4.6 mph - N/A   Clear
8:55 AM 46.4 °F 42.4 °F 19.4 °F 34% 29.96 in 10.0 mi NNW 8.1 mph - N/A   Clear
9:15 AM 44.6 °F - 19.4 °F 37% 29.97 in 10.0 mi Calm Calm - N/A   Clear
9:35 AM 46.4 °F 45.2 °F 19.4 °F 34% 29.96 in 10.0 mi South 3.5 mph - N/A   Clear
9:55 AM 46.4 °F 42.4 °F 19.4 °F 34% 29.95 in 10.0 mi SSE 8.1 mph - N/A   Clear
10:15 AM 46.4 °F 44.3 °F 19.4 °F 34% 29.94 in 10.0 mi SSW 4.6 mph - N/A   Clear
10:35 AM 46.4 °F - 19.4 °F 34% 29.93 in 10.0 mi Calm Calm - N/A   Clear
10:55 AM 48.2 °F - 19.4 °F 32% 29.92 in 10.0 mi WSW 6.9 mph - N/A   Clear
11:15 AM 50.0 °F - 19.4 °F 30% 29.91 in 10.0 mi South 10.4 mph 16.1 mph N/A   Clear
11:35 AM 50.0 °F - 21.2 °F 32% 29.89 in 10.0 mi SSE 17.3 mph 25.3 mph N/A   Clear
11:55 AM 51.8 °F - 21.2 °F 30% 29.87 in 10.0 mi South 19.6 mph 28.8 mph N/A   Scattered Clouds
12:15 PM 51.8 °F - 19.4 °F 28% 29.85 in 10.0 mi South 23.0 mph 33.4 mph N/A   Scattered Clouds
12:35 PM 51.8 °F - 21.2 °F 30% 29.85 in 10.0 mi SSE 15.0 mph 29.9 mph N/A   Mostly Cloudy
12:55 PM 51.8 °F - 21.2 °F 30% 29.84 in 10.0 mi SSE 12.7 mph 21.9 mph N/A   Overcast
1:15 PM 50.0 °F - 21.2 °F 32% 29.83 in 10.0 mi South 15.0 mph 26.5 mph N/A   Overcast
1:35 PM 50.0 °F - 21.2 °F 32% 29.83 in 10.0 mi South 13.8 mph 24.2 mph N/A   Overcast
1:55 PM 50.0 °F - 21.2 °F 32% 29.81 in 10.0 mi South 15.0 mph 23.0 mph N/A   Overcast
2:15 PM 50.0 °F - 19.4 °F 30% 29.81 in 10.0 mi South 16.1 mph 21.9 mph N/A   Overcast
2:35 PM 50.0 °F - 19.4 °F 30% 29.81 in 10.0 mi South 15.0 mph 23.0 mph N/A   Overcast
3:15 PM 50.0 °F - 19.4 °F 30% 29.78 in 10.0 mi SSE 19.6 mph 31.1 mph N/A   Overcast
3:35 PM 50.0 °F - 19.4 °F 30% 29.78 in 10.0 mi South 20.7 mph 34.5 mph N/A   Overcast
3:55 PM 50.0 °F - 21.2 °F 32% 29.78 in 10.0 mi South 21.9 mph 28.8 mph N/A   Overcast
4:15 PM 50.0 °F - 21.2 °F 32% 29.77 in 10.0 mi South 19.6 mph 32.2 mph N/A   Overcast
4:35 PM 48.2 °F - 21.2 °F 34% 29.77 in 10.0 mi SSE 19.6 mph 34.5 mph N/A   Overcast
4:55 PM 48.2 °F - 21.2 °F 34% 29.77 in 10.0 mi SSE 19.6 mph 32.2 mph N/A   Overcast
5:15 PM 48.2 °F - 21.2 °F 34% 29.78 in 10.0 mi South 16.1 mph 34.5 mph N/A   Overcast
5:35 PM 46.4 °F 40.4 °F 21.2 °F 37% 29.77 in 10.0 mi SW 13.8 mph 25.3 mph N/A   Overcast
5:55 PM 46.4 °F 37.9 °F 21.2 °F 37% 29.76 in 10.0 mi SSW 25.3 mph 33.4 mph N/A   Overcast
6:15 PM 46.4 °F 38.3 °F 23.0 °F 40% 29.76 in 10.0 mi SSW 23.0 mph 27.6 mph N/A   Overcast
6:35 PM 44.6 °F 38.1 °F 24.8 °F 46% 29.76 in 10.0 mi South 13.8 mph 23.0 mph N/A   Overcast
6:55 PM 44.6 °F 37.4 °F 26.6 °F 49% 29.75 in 10.0 mi South 16.1 mph 23.0 mph N/A   Overcast
7:35 PM 44.6 °F 38.1 °F 28.4 °F 53% 29.73 in 10.0 mi South 13.8 mph 31.1 mph N/A   Overcast
7:55 PM 42.8 °F 34.3 °F 30.2 °F 61% 29.72 in 10.0 mi South 19.6 mph 27.6 mph N/A   Overcast
8:15 PM 42.8 °F 33.8 °F 32.0 °F 66% 29.70 in 10.0 mi South 21.9 mph 34.5 mph N/A   Overcast
8:35 PM 42.8 °F 34.8 °F 32.0 °F 66% 29.71 in 10.0 mi South 17.3 mph 24.2 mph N/A   Overcast
9:35 PM 42.8 °F 34.8 °F 32.0 °F 66% 29.70 in 10.0 mi SSW 17.3 mph 31.1 mph N/A   Overcast
10:35 PM 37.4 °F 28.2 °F 28.4 °F 70% 29.72 in 10.0 mi West 16.1 mph 27.6 mph N/A   Overcast
10:55 PM 37.4 °F 26.4 °F 28.4 °F 70% 29.73 in 10.0 mi West 23.0 mph 28.8 mph N/A   Overcast
11:15 PM 35.6 °F 25.5 °F 28.4 °F 75% 29.74 in 10.0 mi West 17.3 mph 23.0 mph N/A   Overcast
11:35 PM 35.6 °F 26.2 °F 26.6 °F 70% 29.74 in 10.0 mi West 15.0 mph 24.2 mph N/A   Overcast
11:55 PM 33.8 °F 22.8 °F 26.6 °F 75% 29.74 in 10.0 mi WNW 18.4 mph 28.8 mph N/A   Overcast